Вернуться в каталог

STARLINK-36884

АктивенСвязьSSO
NORAD 68026·PAYLOAD·🇺🇸 United States

Запущен Mar 1, 2026 с Vandenberg Space Force Base

Loading…

Ближайшие Пролёты (ближайшие 24 часа)

TLE

СвежийSource: CelesTrak SupGP

Эпоха: Sep 15, 2026, 02:58 UTC

1 68026C 26040M   26258.12409722  .00036755  00000+0  11413-2 0  2589
2 68026  97.2857 205.5213 0001870  97.7194 237.2888 15.33411070    17

Отслеживайте STARLINK-36884 в реальном времени с AllMySat

Download on the App Store